Regional Weather Roundup
Issued by NWS Sioux Falls, SD

Home | Current Version | Previous Version | Text Only | Print | Product List | Glossary Off
Versions: 1 2 3 4 5 6 7 8 9 10 11 12 13 14 15 16 17 18 19 20 21 22 23 24 25 26 27 28 29 30 31 32 33 34 35 36 37 38 39 40 41 42 43 44 45 46 47 48 49 50

000
ASUS43 KFSD 231002
RWRFSD

WEATHER ROUNDUP FOR SE SOUTH DAKOTA/SW MINNESOTA/NW IOWA
NATIONAL WEATHER SERVICE SIOUX FALLS SD
500 AM CDT THU OCT 23 2014

NOTE: "FAIR" INDICATES FEW OR NO CLOUDS BELOW 12,000 FEET WITH NO
SIGNIFICANT WEATHER AND OR OBSTRUCTIONS TO VISIBILITY.


SDZ038>040-050-052>070-231100-
SOUTHEAST SOUTH DAKOTA

CITY           SKY/WX    TMP DP  RH WIND       PRES   REMARKS
CHAMBERLAIN    CLEAR     38  35  91 CALM      30.00S
HURON          CLEAR     39  38  96 CALM      29.98R
MADISON        FAIR      43  43 100 SW6       30.00S FOG
MITCHELL       CLEAR     46  43  89 SW6       30.00S
SIOUX FALLS    FOG       45  45 100 CALM      30.01S VSB 1/16
WINNER         FAIR      50  41  71 SW10      30.00F
YANKTON        MOCLDY    43  41  93 CALM      30.03S VSB 1/4
$$

MNZ071-072-080-081-089-090-097-098-231100-
SOUTHWEST MINNESOTA

CITY           SKY/WX    TMP DP  RH WIND       PRES   REMARKS
FAIRMONT       CLOUDY    54  48  82 S7        30.00S
JACKSON        CLOUDY    54  50  87 W7        30.01R FOG
LUVERNE        FOG       50  50 100 CALM      30.02S VSB 1/4
MARSHALL       CLEAR     48  45  87 SW5       29.97S
MONTEVIDEO     CLEAR     46  46 100 SW5       29.97S
PIPESTONE      FOG       50  50 100 CALM      30.00S VSB 1/4
REDWOOD FALLS  FOG       49  48  97 SW5       29.98S VSB 3/4
TRACY          CLEAR     50  49  95 SW8       29.99S
WINDOM         CLOUDY    54  52  94 SW8       30.00S
WORTHINGTON    CLOUDY    52  50  93 W8        30.02S VSB 1/2
$$

IAZ001>003-012>014-020>022-031-032-NEZ013-014-SDZ071-231100-
NORTHWEST IOWA

CITY           SKY/WX    TMP DP  RH WIND       PRES   REMARKS
CHEROKEE       CLOUDY    57  57 100 N5        30.01S FOG
DENISON        CLOUDY    57  57 100 S9        30.00S FOG
ESTHERVILLE    CLOUDY    54  54 100 SW5       30.00S FOG
LE MARS        FOG       52  52 100 CALM      30.03R VSB<1/4
ORANGE CITY    FOG       54  52  94 W3        30.02S VSB<1/4
SHELDON        FOG       50  50 100 NW3       30.01R VSB<1/4
SIOUX CITY     FOG       54  54 100 NW7       30.02S VSB 3/4
SPENCER        CLOUDY    56  54  93 NW7       30.01S
STORM LAKE     CLOUDY    57  57 100 W6        30.02S FOG
$$

ABBREVIATIONS USED IN REMARKS
   TC - TEMPERATURE IN CELSIUS
  WCI - WIND CHILL INDEX
   HX - HEAT INDEX
  VSB - VISIBILITY




USA.gov is the U.S. government's official web portal to all federal, state and local government web resources and services.